Location: Unspecified
(0.0000°N, 0.0000°E)
Time: 06:02:31
(UTC+00:00)

Vanguard 2 Rocket - Pass Details

Date: 16 October 2022
Orbit: 555 x 3321 km, 32.9° (Epoch: 06 December)

Event Time Altitude Azimuth Distance (km) Brightness Sun altitude
Rises 00:04:03 0° 319° (NW) 6,494 - -80.1°
Reaches altitude 10° 00:10:43 10° 334° (NNW) 4,934 - -79.2°
Maximum altitude 00:19:15 20° 15° (NNE) 3,359 - -77.9°
Drops below altitude 10° 00:25:20 10° 58° (ENE) 3,385 - -76.8°
Sets 00:28:42 0° 76° (ENE) 3,959 - -76.1°
